India Forums Logo

Hum ne li hai... Shapath

India Forums > Forum Index > Hum ne li hai... Shapath
Hum ne li hai... Shapath is a story of tough cops against the flawed system with thrilling and contemporary police cases weaved in.
<< | 1 | 2 | 3 | 4 | 5 | 6 | 7 | 8 | 9 | 10 | 11 | 12 | 13 | 14 | 15 | 16 | 17 | 18 | 19 | ... >>
TIDTopic SubjectStart DateLast Entry
3075384Sargun Mehta and Rahil Azam in HNLHS-TOI7/5/2012 2:00:32 AM7/9/2012 9:28:51 AM
3080660"Hum Ne Li Hai Shapath Trailer"7/7/2012 10:22:40 AM7/10/2012 5:32:40 AM
3081010Was Sargun aired in today's episode plzz comment7/7/2012 4:54:08 PM7/10/2012 4:18:40 PM
30825397-8thJuly -- EHQ Shapath*Eng subs* WO/DL7/9/2012 3:33:20 AM7/10/2012 8:22:09 AM
3083668COTW 2: Riddle Me This7/9/2012 1:50:15 PM7/22/2012 9:07:48 AM
3083788Written Up To Date 7th July 2012 Still Uptodating7/9/2012 4:00:49 PM7/9/2012 4:00:49 PM
3084647Guyz need u r help!!!7/10/2012 7:04:56 AM7/11/2012 7:10:04 AM
3084669TB:Thrill zone with Sarwar Ahuja!7/10/2012 7:16:42 AM7/14/2012 2:33:41 AM
3085447Piyush Vs Kapil7/10/2012 12:49:51 PM7/10/2012 12:49:51 PM
3085947Nishant Malkani to be a film star in Hum Ne Li Hai7/11/2012 12:32:16 AM7/14/2012 3:22:01 AM
3086150HNLHS Team Interview!!!!7/11/2012 3:41:39 AM7/11/2012 7:54:43 AM
308644011th July Shapath *E24 Seg*WatchOnLine/Download7/11/2012 7:32:16 AM7/13/2012 11:10:18 PM
30871327/8/2012 WU: Rave Party Part 27/11/2012 11:09:07 AM7/11/2012 12:11:44 PM
3090718Surprise Birthday Party for Sarwar Ahuja7/13/2012 4:51:46 AM7/18/2012 5:48:15 AM
3091419GOTW: Replace Someone7/13/2012 10:33:02 AM7/13/2012 10:33:02 AM
3092893New photo of Hasan Zaidi aka Inspector Gautam7/14/2012 5:22:59 AM7/15/2012 12:41:10 PM
3094065Best shooter7/14/2012 8:42:54 PM7/15/2012 3:43:54 AM
309406714th July episode ranking7/14/2012 8:45:09 PM7/14/2012 8:45:09 PM
3094616\\ happy birthday water nymph madhura naik //7/15/2012 5:26:30 AM7/20/2012 2:01:07 PM
3094762is shapath going offair ?7/15/2012 7:45:47 AM7/15/2012 8:59:49 AM
309506014thJuly -- EHQ Shapath*Eng subs* WO/DL7/15/2012 10:36:43 AM7/16/2012 3:04:04 AM
3095366Abhigyan's Expression !!!!7/15/2012 3:53:07 PM7/20/2012 10:24:00 AM
309543315thJuly -- EHQ Shapath*Eng subs* WO/DL7/15/2012 7:36:17 PM7/16/2012 3:05:23 AM
309937615/07/2012 WU: Suicide Bomber (Part 2)7/17/2012 11:10:27 AM7/20/2012 5:49:06 AM
3100890Anjali Mukhi to play Abhigyaan's love interest-TOI7/18/2012 7:49:06 AM8/4/2012 12:21:34 AM
3102801Madhura Naik on her birthday today7/19/2012 5:01:20 AM7/19/2012 5:01:20 AM
3102836Madhura Naik was the hero7/19/2012 5:28:04 AM7/19/2012 5:28:04 AM
3107160Off-screen photos of Shapath cast and crew7/21/2012 12:58:24 AM7/22/2012 12:36:10 AM
3107209Member/Guest/Visitor7/21/2012 1:31:57 AM7/28/2012 2:30:51 AM
3109015COTW 3: Guess the Show7/22/2012 9:17:05 AM7/24/2012 1:04:02 PM
3109280Something fishy...??7/22/2012 1:10:02 PM7/25/2012 2:14:44 AM
310931421-22July -- EHQ Shapath*Eng subs* WO/DL7/22/2012 2:01:36 PM7/22/2012 2:01:36 PM
3109374GOTW: Movie Antakshari (Closed)7/22/2012 3:51:01 PM7/30/2012 4:06:22 AM
3109630Shapath now in 517/23/2012 1:00:57 AM7/24/2012 9:15:47 AM
3110831Hasan : A Father now..7/23/2012 10:42:26 AM7/23/2012 8:09:28 PM
3110899||The New Father Hasan Zaidi AT #2||7/23/2012 11:01:40 AM8/10/2012 7:54:17 AM
3111882TellyBuzz : A baby girl is born to Hasan Zaidi7/24/2012 2:18:48 AM7/24/2012 2:18:48 AM
3114599The Kinds Of Cases...7/25/2012 9:51:30 AM7/28/2012 3:08:44 AM
3115933Kuldeep Malik back in Hum Ne Li Hai Shapath7/26/2012 4:49:20 AM7/27/2012 6:07:50 AM
3116390Does Shaurya Have A Right?7/26/2012 9:27:33 AM7/31/2012 5:46:32 PM
3119466*~*HNLHS Banner Contest*~* (Closed)7/27/2012 4:56:27 PM8/23/2012 1:03:01 PM
312050928th July -- EHQ Shapath*Eng subs* WO/DL7/28/2012 1:44:47 PM7/28/2012 7:11:27 PM
3121677COTW 4: Whose the Actor (Closed)7/29/2012 3:12:11 PM8/1/2012 9:34:11 AM
3121679Newsletter Time!!!!7/29/2012 3:14:33 PM8/3/2012 9:06:22 AM
312173329th July -- EHQ Shapath*Eng subs* WO/DL7/29/2012 5:05:59 PM7/30/2012 11:28:40 PM
3122021Shapath ranking Up7/30/2012 2:11:40 AM7/30/2012 2:11:40 AM
3122174Piyush to Perform !!!7/30/2012 4:19:32 AM8/7/2012 6:05:49 AM
3122272Shapath again in 357/30/2012 5:32:20 AM7/30/2012 5:32:20 AM
3122291Abhigyan was just mind blowing yesterday(29thJuly)7/30/2012 5:42:24 AM8/1/2012 7:35:20 AM
3122352GOTW: Antakshari With Words (closed)7/30/2012 6:12:48 AM8/4/2012 12:55:23 PM
3123259HNLHS CM and Actor Rating (pg. 5)7/30/2012 1:16:58 PM8/20/2012 12:35:48 PM
312429329/07/2012 WU: Bombs and Terrorists7/31/2012 9:13:47 AM8/1/2012 5:51:03 AM
3124761Darshan Dave enters Shapath yeahhh :)7/31/2012 12:11:55 PM8/5/2012 1:50:02 AM
3124911TB: Hasan Zaidi is Now a Proud Father7/31/2012 1:51:38 PM7/31/2012 1:51:38 PM
3124922Written Updaters Needed7/31/2012 2:03:40 PM8/16/2012 6:58:10 PM
3124951Gautam and Shika Vm on Khudaaya Tu Bata !!!!7/31/2012 2:44:02 PM8/4/2012 2:42:51 AM
3125109Describe This Serial In One Word...7/31/2012 6:44:54 PM8/2/2012 2:48:39 AM
31314024th Aug -- EHQ Shapath*Eng subs* WO/DL8/4/2012 6:59:32 PM8/4/2012 6:59:32 PM
3131570The Cool and Dashing Police Officer Abhigyan8/5/2012 12:26:12 AM8/9/2012 6:19:09 PM
3131601Inspector8/5/2012 1:13:59 AM8/7/2012 1:54:09 PM
3132143GOTW: The 'A' Word (Closed)8/5/2012 11:25:17 AM8/12/2012 4:26:55 PM
3132176COTW 4 Winners and COTW 5: Name that Person8/5/2012 12:07:33 PM8/8/2012 7:58:27 AM
31322225th Aug -- EHQ Shapath*Eng subs* WO/DL8/5/2012 1:16:26 PM8/5/2012 1:16:26 PM
3132316shika8/5/2012 5:27:23 PM8/7/2012 5:15:52 AM
3132728Aug 4,2012 Written update8/6/2012 4:12:56 AM8/6/2012 11:05:53 AM
3135935ure the best abigyan8/7/2012 11:26:05 AM8/7/2012 1:51:02 PM
3136422A Sweet Pet Name For All The Actors8/7/2012 5:50:08 PM8/8/2012 2:18:21 AM
3136447||Khooni Kaun? NL #1||8/7/2012 6:36:05 PM8/9/2012 10:59:15 PM
313728408/05/2012 WU: Ladki ki Laash Gayab8/8/2012 6:47:17 AM8/9/2012 6:00:08 AM
3139524Happy birthday MISABH8/9/2012 7:52:38 AM8/10/2012 9:48:27 AM
3139956Deleted because they are against IF rules8/9/2012 10:16:06 AM8/9/2012 10:43:26 AM
3140006Poll for best actor in emotional roles8/9/2012 10:30:19 AM8/27/2012 5:41:09 AM
3140587||The Strong Hasan Zaidi AT#3||8/9/2012 5:19:09 PM10/20/2012 8:20:03 PM
3140609||Superb Inspector Shaurya AT#1||8/9/2012 5:50:38 PM3/1/2013 10:15:31 PM
3140765HAPPY BIRTHDAY ZARIYAT8/9/2012 9:21:52 PM8/15/2012 1:20:29 AM
<< | 1 | 2 | 3 | 4 | 5 | 6 | 7 | 8 | 9 | 10 | 11 | 12 | 13 | 14 | 15 | 16 | 17 | 18 | 19 | ... >>